NOAA 16 DEB, 41282

Orbit data source: Space-Track

NOAA 16 DEB, 41282 is space debris in SSO originally from a launch on Thu, 21 Sep 2000 UTC launched from the Air Force Western Test Range (AFWTR). Debris objects in space refer to the collection of defunct objects orbiting the Earth. Examples of debris include non-operational satellites, rocket bodies, and fragments generated from explosions, collisions, or faulty payload assembly.

Loading next visibility...
Identifier
41282, 2000-055GJ
Orbit
SSO
Country
Flag of USUS
Related business
Manufacturer
Unknown
Mission
Spacecraft
Bus & Motor
Unknown
Mass
Unknown
Launch date (UTC)
2000-09-21 (26 years ago)
Launch vehicle
Unknown
Launch site
Air Force Western Test Range (AFWTR)
Object type
Payload
Rocket body
Debris
Shape & HBR
Unknown shape, 0.1 m
Radar Cross Section
Medium (>0.1 m² and <1 m²)

Expand to show TLE details & history
Last TLE update: 2 days ago

TLE from 2 days ago
0 NOAA 16 DEB
1 41282U 00055GJ  26177.25467605  .00003984  00000-0  19334-2 0  9991
2 41282  98.7802 184.1850 0056297 309.1924  50.4258 14.18072233537849
Epoch: 2026-06-26T06:06Z
TLE epoch observation values (Epoch: 2026-06-26T06:06:44.010Z)
Latitude
-0.00012°
Longitude
178.11583°
Altitude
809.062 km
Speed
7.462 km/s
True Right ascension
12h 16m 44s
True Declination
0° 00' 00"
Sunlit
Object was in daylight at epoch
Visualization orbit readout
Latitude
Unknown
Longitude
Unknown
Altitude
Unknown
Speed
Unknown
Apparent Right ascension
Unknown
Apparent Declination
Unknown
Sunlit
N/A
Visualization observer readout
Local Sidereal Time
08:00:48
Azimuth
Unknown
Elevation
Unknown
Doppler factor
Unknown
Orbital elements
Apogee altitude
869.618 km
Perigee altitude
788.47 km
Semi-major axis
7,207.181 km
Eccentricity
0.00563
Inclination
98.7802°
RAAN
184.185°
Arg. of periapsis
309.1924°
True anomaly
50.92529°
Mean anomaly
50.4258°
Eccentric anomaly
50.67532°
Mean motion
3.54728 °/min
Orbital period
101.49 mins
BSTAR
0.0019334
Loading maneuver chart data...
Computing Atmospheric mass density...
Loading historical data...
Loading historical data...
Loading historical data...
Loading historical data...
Loading historical data...
Loading historical data...
Loading historical data...

Documentation

Showing up to 5 results
|